Date String (YYYY-MM-DD hh:mm:ss) UTC,Instrument flags,Ambient pressure (hPa),Sample flow (lpm),Bypass flow (lpm),Sample temperature (°C),Ambient temperature (°C),ASC tube jacket temperature (°C),LED temperature (°C),Box temperature (°C),Sample RH (%),Span deviation,Mass concentration (μg/m³),Mass concentration (μg/m³),Mass concentration (μg/m³)
DateTimeUTC,F1_M11,P_M11,Q1_M11,Q2_M11,T1_M11,T2_M11,T3_M11,T4_M11,T5_M11,U1_M11,ZSPAN_M11,X0_M11,X2_M11,X1_M11
2021-08-23 22:00:00,,0824.6,4.99,0.00,29.0,27.9,00.0,37.9,30.9,22.5,0000.0,0007.60,0003.89,0003.67
2021-08-23 22:01:00,,0824.6,5.00,0.00,29.1,27.9,00.0,37.9,30.9,22.0,0000.0,0007.77,0003.88,0003.67
2021-08-23 22:02:00,,0824.6,5.01,0.00,29.0,26.4,00.0,37.9,30.5,22.1,0000.0,0008.50,0003.89,0003.67
2021-08-23 22:03:00,,0824.6,5.01,0.00,28.8,25.6,00.0,37.9,30.2,22.3,0000.0,0009.14,0003.87,0003.66
2021-08-23 22:04:00,,0824.6,5.01,0.00,28.8,26.0,00.0,37.9,30.3,22.7,0000.0,0009.24,0003.87,0003.66
2021-08-23 22:05:00,,0824.6,4.99,0.00,28.8,26.4,00.0,37.9,30.4,23.2,0000.0,0008.42,0003.87,0003.65
2021-08-23 22:06:00,,0824.6,5.01,0.00,28.8,26.9,00.0,37.9,30.6,23.1,0000.0,0008.46,0003.86,0003.64
2021-08-23 22:07:00,,0824.6,4.99,0.00,28.9,27.3,00.0,37.9,30.7,22.8,0000.0,0008.57,0003.84,0003.62
2021-08-23 22:08:00,,0824.6,5.01,0.00,28.9,27.7,00.0,37.9,30.9,22.5,0000.0,0008.54,0003.81,0003.61
2021-08-23 22:09:00,,0824.7,5.00,0.00,29.0,28.0,00.0,37.9,30.9,21.8,0000.0,0008.70,0003.79,0003.60
2021-08-23 22:10:00,,0824.7,4.99,0.00,29.0,27.3,00.0,37.9,30.7,21.9,0000.0,0009.20,0003.79,0003.59
2021-08-23 22:11:00,,0824.6,5.01,0.00,28.9,25.7,00.0,37.9,30.3,22.5,0000.0,0009.21,0003.79,0003.60
2021-08-23 22:12:00,,0824.7,5.00,0.00,28.8,25.6,00.0,37.9,30.2,21.8,0000.0,0008.89,0003.81,0003.62
2021-08-23 22:13:00,,0824.6,5.00,0.00,28.8,26.1,00.0,37.9,30.4,22.1,0000.0,0008.23,0003.82,0003.64
2021-08-23 22:14:00,,0824.7,4.99,0.00,28.8,26.6,00.0,37.9,30.5,22.9,0000.0,0008.19,0003.87,0003.67
2021-08-23 22:15:00,,0824.6,5.01,0.00,28.8,27.1,00.0,37.8,30.6,23.2,0000.0,0008.50,0003.88,0003.68
2021-08-23 22:16:00,,0824.7,5.00,0.00,28.9,27.5,00.0,37.9,30.8,22.9,0000.0,0008.53,0003.89,0003.69
2021-08-23 22:17:00,,0824.7,4.99,0.00,28.9,27.8,00.0,37.9,30.9,22.7,0000.0,0008.36,0003.88,0003.68
2021-08-23 22:18:00,,0824.7,5.00,0.00,29.0,28.1,00.0,37.9,31.0,23.5,0000.0,0008.31,0003.88,0003.67
2021-08-23 22:19:00,,0824.7,5.01,0.00,29.0,27.5,00.0,37.9,30.8,22.8,0000.0,0008.72,0003.91,0003.68
2021-08-23 22:20:00,,0824.7,4.99,0.00,28.9,25.9,00.0,37.9,30.3,23.8,0000.0,0008.54,0003.93,0003.68
2021-08-23 22:21:00,,0824.6,4.99,0.00,28.8,25.7,00.0,37.9,30.2,23.5,0000.0,0008.23,0003.94,0003.69
2021-08-23 22:22:00,,0824.8,5.00,0.00,28.8,26.2,00.0,37.9,30.4,24.0,0000.0,0009.02,0003.97,0003.70
2021-08-23 22:23:00,,0824.7,5.00,0.00,28.8,26.6,00.0,37.9,30.5,24.4,0000.0,0009.53,0003.99,0003.70
2021-08-23 22:24:00,,0824.7,5.00,0.00,28.8,27.1,00.0,37.9,30.6,23.0,0000.0,0009.45,0004.02,0003.71
2021-08-23 22:25:00,,0824.7,5.01,0.00,28.9,27.5,00.0,37.9,30.7,23.5,0000.0,0008.85,0004.02,0003.73
2021-08-23 22:26:00,,0824.7,5.00,0.00,29.0,27.8,00.0,37.9,30.9,23.1,0000.0,0008.41,0004.04,0003.75
2021-08-23 22:27:00,,0824.7,4.99,0.00,29.0,28.1,00.0,37.9,31.0,23.6,0000.0,0008.43,0004.07,0003.78
2021-08-23 22:28:00,,0824.7,5.00,0.00,29.1,27.6,00.0,37.9,30.8,23.5,0000.0,0009.00,0004.16,0003.85
2021-08-23 22:29:00,,0824.6,5.01,0.00,28.9,26.1,00.0,37.9,30.3,23.3,0000.0,0009.16,0004.25,0003.92
2021-08-23 22:30:00,,0824.7,5.00,0.00,28.8,25.8,00.0,37.9,30.2,22.7,0000.0,0008.96,0004.32,0003.97
2021-08-23 22:31:00,,0824.6,5.00,0.00,28.8,26.2,00.0,37.9,30.4,23.0,0000.0,0009.35,0004.38,0004.01
2021-08-23 22:32:00,,0824.6,5.00,0.00,28.8,26.6,00.0,37.9,30.5,22.7,0000.0,0009.73,0004.45,0004.04
2021-08-23 22:33:00,,0824.6,5.00,0.00,28.8,27.1,00.0,37.9,30.6,22.6,0000.0,0009.26,0004.48,0004.06
2021-08-23 22:34:00,,0824.6,5.00,0.00,28.9,27.5,00.0,37.9,30.8,21.9,0000.0,0008.94,0004.52,0004.09
2021-08-23 22:35:00,,0824.6,5.01,0.00,29.0,27.8,00.0,37.9,30.9,23.4,0000.0,0009.00,0004.55,0004.13
2021-08-23 22:36:00,,0824.6,5.00,0.00,29.0,27.3,00.0,37.9,30.7,23.8,0000.0,0009.02,0004.56,0004.14
2021-08-23 22:37:00,,0824.6,5.01,0.00,28.9,25.8,00.0,37.9,30.4,24.3,0000.1,0009.72,0004.57,0004.13
2021-08-23 22:38:00,,0824.6,4.99,0.00,28.8,25.5,00.0,37.9,30.2,24.2,0000.5,0009.90,0004.58,0004.13
2021-08-23 22:39:00,,0824.7,5.00,0.00,28.7,26.0,00.0,37.9,30.3,23.9,0000.0,0009.43,0004.56,0004.12
2021-08-23 22:40:00,,0824.7,5.00,0.00,28.7,26.4,00.0,37.8,30.4,23.8,0000.0,0009.43,0004.53,0004.09
2021-08-23 22:41:00,,0824.7,4.99,0.00,28.8,26.9,00.0,37.8,30.5,24.1,0000.0,0009.39,0004.50,0004.08
2021-08-23 22:42:00,,0824.6,5.00,0.00,28.8,27.3,00.0,37.8,30.7,23.1,0000.0,0009.01,0004.46,0004.07
2021-08-23 22:43:00,,0824.6,5.00,0.00,28.9,27.7,00.0,37.8,30.8,22.3,0000.4,0008.60,0004.45,0004.07
2021-08-23 22:44:00,,0824.6,4.99,0.00,29.0,28.0,00.0,37.9,30.9,23.2,0000.0,0008.69,0004.44,0004.08
2021-08-23 22:45:00,,0824.6,5.01,0.00,29.0,28.2,00.0,37.9,31.0,24.0,0000.0,0009.00,0004.43,0004.06
2021-08-23 22:46:00,,0824.5,4.99,0.00,29.1,28.4,00.0,37.9,31.1,22.6,0000.0,0009.74,0004.41,0004.01
2021-08-23 22:47:00,,0824.8,5.01,0.00,29.1,27.2,00.0,38.0,30.7,21.7,0000.0,0010.25,0004.43,0004.01
2021-08-23 22:48:00,,0824.6,5.01,0.00,28.9,25.8,00.0,38.0,30.4,22.3,0000.0,0009.92,0004.41,0004.01
2021-08-23 22:49:00,,0824.5,4.99,0.00,28.9,25.9,00.0,37.9,30.3,22.0,0000.0,0010.04,0004.40,0004.00
2021-08-23 22:50:00,,0824.5,5.00,0.00,28.8,26.4,00.0,37.9,30.5,21.9,0000.0,0009.99,0004.40,0004.01
2021-08-23 22:51:00,,0824.4,5.00,0.00,28.8,26.8,00.0,37.9,30.6,22.5,0000.0,0009.91,0004.42,0004.04
2021-08-23 22:52:00,,0824.6,5.01,0.00,28.9,27.2,00.0,37.9,30.7,23.2,0000.0,0009.82,0004.38,0004.01
2021-08-23 22:53:00,,0824.4,5.00,0.00,29.0,27.6,00.0,37.9,30.8,23.1,0000.0,0010.51,0004.34,0003.98
2021-08-23 22:54:00,,0824.5,5.00,0.00,29.0,28.0,00.0,37.9,31.0,23.2,0000.0,0010.60,0004.26,0003.94
2021-08-23 22:55:00,,0824.5,5.01,0.00,29.1,28.2,00.0,38.0,31.1,23.5,0000.0,0009.98,0004.18,0003.88
2021-08-23 22:56:00,,0824.4,5.00,0.00,29.1,27.3,00.0,38.0,30.8,22.8,0000.0,0009.74,0004.12,0003.84
2021-08-23 22:57:00,,0824.4,5.01,0.00,29.0,25.8,00.0,38.0,30.4,22.6,0000.0,0009.68,0004.10,0003.86
2021-08-23 22:58:00,,0824.4,5.01,0.00,28.9,25.9,00.0,38.0,30.4,22.6,0000.0,0009.43,0004.09,0003.86
2021-08-23 22:59:00,,0824.5,4.99,0.00,28.9,26.3,00.0,38.0,30.5,22.5,0001.3,0009.24,0004.12,0003.87
